This is the latest recevied weather packets stored in our database for station/object JE0GNV-13. If no packets are shown the sender has not sent any weather packets the latest 10 day(s).
| Time | Temp. | Humidity | Pressure | Rain* | Wind** | Luminosity | Snow |
|---|---|---|---|---|---|---|---|
| 1777689001 | 19.44° C | 53% | 1005.9 hPa | 0 mm | - | - | - |
| 1777688402 | 18.33° C | 49% | 1006 hPa | 0 mm | - | - | - |
| 1777687801 | 18.33° C | 51% | 1006 hPa | 0 mm | - | - | - |
| 1777687200 | 18.89° C | 50% | 1005.9 hPa | 0 mm | - | - | - |
| 1777686601 | 18.33° C | 54% | 1005.8 hPa | 0 mm | - | - | - |
| 1777686000 | 17.22° C | 57% | 1005.8 hPa | 0 mm | - | - | - |
| 1777685400 | 17.22° C | 59% | 1005.9 hPa | 0 mm | - | - | - |
| 1777684800 | 16.67° C | 62% | 1005.9 hPa | 0 mm | - | - | - |
| 1777684201 | 16.67° C | 60% | 1005.9 hPa | 0 mm | - | - | - |
| 1777683601 | 16.11° C | 65% | 1005.8 hPa | 0 mm | - | - | - |
| 1777683001 | 15° C | 65% | 1005.6 hPa | 0 mm | - | - | - |
| 1777682401 | 14.44° C | 68% | 1005.6 hPa | 0 mm | - | - | - |
| 1777681800 | 14.44° C | 67% | 1005.7 hPa | 0 mm | - | - | - |
| 1777681202 | 13.89° C | 70% | 1005.9 hPa | 0 mm | - | - | - |
| 1777680601 | 13.33° C | 74% | 1005.9 hPa | 0 mm | - | - | - |
| 1777680001 | 13.33° C | 69% | 1005.9 hPa | 0 mm | - | - | - |
| 1777679401 | 12.78° C | 76% | 1006 hPa | 0 mm | - | - | - |
| 1777678801 | 12.78° C | 76% | 1006 hPa | 0 mm | - | - | - |
| 1777678200 | 12.78° C | 78% | 1005.8 hPa | 0 mm | - | - | - |
| 1777677600 | 12.78° C | 81% | 1005.5 hPa | 0 mm | - | - | - |
| 1777677001 | 12.22° C | 84% | 1005.4 hPa | 0 mm | - | - | - |
| 1777676400 | 11.11° C | 88% | 1005 hPa | 0 mm | - | - | - |
| 1777675801 | 10° C | 88% | 1004.9 hPa | 0 mm | - | - | - |
| 1777675201 | 8.89° C | 94% | 1004.9 hPa | 0 mm | - | - | - |
| 1777674602 | 7.78° C | 98% | 1004.8 hPa | 0 mm | - | - | - |
* Rain latest hour (hover to see other rain measurements)
** Current wind speed in m/s (hover to see current wind gust speed)